This demonstration page uses our WeatherBlox Daily Observations layout. Learn more.

Left ArrowRight Arrow

53.62937, 11.41316

Hourly Observations for June 11, 2017

Temp ( °F °C ) Dew Point ( °F °C ) Humidity (%) Winds ( mph kmh ) Pressure ( in mb ) Visibility ( mi km ) Precip ( " mm )
7:20 am 07:20 Mostly Sunny 64 18 55 13 73 73 S 7 11 30.06 1018 7 11 N/A
7:50 am 07:50 Mostly Sunny 66 19 55 13 68 68 SSE 6 9 30.06 1018 7 11 N/A
8:20 am 08:20 Mostly Sunny 66 19 54 12 64 64 S 7 11 30.06 1018 7 11 N/A
8:50 am 08:50 Mostly Sunny 66 19 55 13 68 68 S 6 9 30.03 1017 7 11 N/A
9:20 am 09:20 Mostly Sunny 70 21 57 14 64 64 S 8 13 30.03 1017 7 11 N/A
9:50 am 09:50 Mostly Sunny 72 22 57 14 61 61 SSW 10 17 30.03 1017 7 11 N/A
10:20 am 10:20 Mostly Sunny 73 23 59 15 61 61 SSW 10 17 30.03 1017 7 11 N/A
10:50 am 10:50 Mostly Sunny 73 23 59 15 61 61 SW 10 17 30.03 1017 7 11 N/A
11:20 am 11:20 Mostly Sunny 75 24 59 15 57 57 SSW 9 15 30.03 1017 7 11 N/A
11:50 am 11:50 Mostly Sunny 77 25 59 15 54 54 SW 8 13 30.03 1017 7 11 N/A
12:20 pm 12:20 Mostly Sunny 77 25 59 15 54 54 WSW 12 19 30.00 1016 7 11 N/A
12:50 pm 12:50 Mostly Sunny 77 25 59 15 54 54 SW 12 19 30.00 1016 7 11 N/A
1:20 pm 13:20 Mostly Sunny 77 25 61 16 57 57 SW 15 24 30.00 1016 7 11 N/A
1:50 pm 13:50 Mostly Sunny 79 26 59 15 51 51 WSW 12 19 29.97 1015 7 11 N/A
2:20 pm 14:20 Mostly Sunny 81 27 61 16 51 51 SW 13 20 29.97 1015 7 11 N/A
2:50 pm 14:50 Mostly Sunny 81 27 59 15 48 48 SW 10 17 29.94 1014 7 11 N/A
3:20 pm 15:20 Mostly Sunny 81 27 61 16 51 51 SSW 10 17 29.94 1014 7 11 N/A
3:50 pm 15:50 Mostly Sunny 81 27 61 16 51 51 SSW 10 17 29.94 1014 7 11 N/A
4:20 pm 16:20 Mostly Sunny 79 26 61 16 54 54 SW 10 17 29.91 1013 7 11 N/A
4:50 pm 16:50 Mostly Sunny 81 27 61 16 51 51 SSW 12 19 29.91 1013 7 11 N/A
5:20 pm 17:20 Mostly Sunny 79 26 61 16 54 54 SW 10 17 29.88 1012 7 11 N/A
5:50 pm 17:50 Mostly Sunny 79 26 59 15 51 51 SW 9 15 29.88 1012 7 11 N/A
6:20 pm 18:20 Mostly Sunny 77 25 57 14 51 51 SW 8 13 29.88 1012 7 11 N/A
6:50 pm 18:50 Mostly Cloudy with Light Rain 72 22 61 16 69 69 SSW 10 17 29.88 1012 30 48 N/A
7:20 pm 19:20 Mostly Cloudy 70 21 63 17 78 78 SSW 3 6 29.88 1012 30 48 N/A
7:50 pm 19:50 Mostly Cloudy with Light Rain 72 22 61 16 69 69 S 6 9 29.88 1012 4 7 N/A
8:20 pm 20:20 Mostly Cloudy with Rain 66 19 64 18 94 94 VRB 1 2 29.88 1012 4 7 N/A

Powered by AerisWeather